GFSNE_925_temp_276.txt.gz
Temp
20 20 20 20 20 20 21 21 20 18 18 23 23 23 23 23 23 23 24 24 24 23 24 24 23 23 22 22 22 22 21 21 21 21 21 20 20 19
19 19 20 20 19 20 20 21 21 21 18 22 22 22 23 24 24 24 24 24 24 23 24 24 24 23 23 23 22 22 22 22 21 21 21 20 20 20
20 19 19 19 19 19 19 19 19 20 18 21 21 22 22 23 24 24 24 24 23 24 24 25 24 24 23 23 22 21 21 21 21 21 21 20 20 21
19 19 19 19 19 19 19 19 19 19 19 19 20 21 22 22 23 24 23 23 23 24 24 24 24 24 22 23 22 21 21 21 20 20 20 20 20 20
19 19 18 18 19 18 18 18 18 18 18 18 18 20 21 21 21 22 22 23 23 23 24 25 24 23 23 22 22 21 21 21 21 21 21 20 20 20
19 19 18 18 18 18 18 17 17 18 17 18 18 19 19 20 20 20 20 21 21 23 23 23 23 23 22 21 21 21 21 21 20 20 20 20 20 20
19 19 18 18 18 18 17 17 17 17 17 17 17 17 17 18 18 18 19 20 20 21 21 22 22 22 22 21 21 21 21 20 20 20 20 20 20 20
18 18 19 19 18 17 17 17 17 16 17 16 16 16 17 17 18 18 18 18 17 20 20 20 20 21 21 21 21 20 20 20 20 19 19 19 19 19
18 18 18 18 17 17 17 17 17 17 17 17 17 17 17 17 18 18 18 17 18 19 19 20 20 20 20 20 20 20 20 20 20 19 19 19 19 19
17 18 18 18 18 17 17 17 17 17 17 17 17 17 17 17 17 17 17 17 18 18 19 19 19 19 19 19 19 19 19 19 19 19 19 19 19 19
17 18 18 18 17 17 17 17 17 17 16 16 16 17 17 17 17 17 17 17 17 18 18 19 19 19 19 19 19 19 19 19 19 19 19 19 19 19
17 18 18 18 17 17 17 16 16 16 16 17 17 18 18 18 18 18 17 17 16 16 17 18 18 19 19 19 19 18 18 18 18 18 19 18 19 18
18 18 17 17 17 17 16 16 16 15 15 15 16 17 18 19 19 18 18 17 17 17 18 17 17 18 18 18 19 19 19 18 18 19 19 18 18 18
18 18 17 17 17 17 17 16 16 15 15 15 16 17 18 18 18 18 18 18 18 18 17 17 17 17 16 16 18 18 18 19 19 19 19 19 18 17
18 17 17 17 17 17 17 17 17 16 16 16 16 17 18 18 18 18 18 18 18 18 17 17 17 17 16 16 16 17 18 18 18 18 18 18 18 17
18 18 17 17 17 17 18 18 17 17 16 17 17 17 17 17 18 18 18 18 18 18 18 18 17 17 16 16 15 16 16 17 17 17 18 17 17 17
18 17 17 17 17 17 18 18 18 17 17 17 17 17 17 17 18 18 18 18 17 18 18 18 18 16 16 16 15 17 17 17 17 17 17 17 17 17
17 17 16 16 16 16 17 17 18 18 18 18 17 17 17 17 17 18 18 17 17 17 17 18 18 16 15 16 16 17 17 16 17 17 17 17 17 18
16 16 15 15 16 16 16 16 16 18 18 18 18 19 18 18 17 18 17 17 17 17 17 17 17 16 11 12 18 17 17 18 17 17 17 17 17 18
15 15 15 15 14 15 15 15 16 17 17 17 18 19 19 18 17 17 17 17 17 17 17 17 16 16 14 13 16 18 18 18 17 17 17 17 17 17
13 13 13 13 13 13 13 13 14 15 15 16 17 16 16 15 16 17 17 17 17 16 16 17 18 18 17 15 14 16 18 18 18 18 18 17 17 17
11 11 11 11 10 11 11 11 12 12 12 12 12 12 13 13 13 13 14 14 15 15 16 17 18 17 16 15 15 16 18 18 18 18 17 18 17 13
11 10 10 10 9 9 9 9 9 8 7 8 8 9 10 10 11 12 13 12 13 13 14 15 16 17 17 16 16 16 16 18 18 18 18 18 18 18

GFSNE_925_temp_279.txt.gz
Temp
20 20 20 19 20 20 20 20 20 18 17 22 23 23 23 23 23 23 24 24 23 23 23 23 23 23 23 23 22 22 21 21 21 20 21 20 20 20
19 19 19 19 19 19 19 20 20 19 17 21 22 22 22 23 23 23 23 23 23 23 23 23 23 23 23 22 22 22 21 21 21 20 20 20 20 20
19 19 19 19 18 18 19 19 19 19 18 20 21 22 22 22 23 23 23 23 23 23 23 24 24 24 23 22 22 22 21 21 21 21 21 20 20 20
19 19 18 18 18 18 18 18 18 19 19 18 20 20 21 21 22 23 23 22 23 22 23 24 24 25 23 23 22 22 21 21 21 21 20 20 20 20
19 18 18 18 18 18 18 17 18 18 18 18 18 19 20 20 21 21 21 22 22 22 23 24 24 24 23 22 22 22 22 21 21 21 21 20 20 20
18 18 18 18 18 18 17 17 17 17 17 17 17 18 18 19 19 19 20 21 21 22 22 23 23 23 23 22 22 21 21 21 20 20 20 20 20 20
18 18 18 18 18 17 17 17 17 16 16 16 16 16 17 18 18 18 18 19 20 20 21 21 22 23 22 22 22 22 21 21 20 20 20 20 19 19
18 18 18 18 17 17 17 16 16 16 16 16 16 15 16 17 17 17 17 18 17 19 20 20 20 21 21 20 20 20 20 20 20 19 19 19 19 19
17 17 18 18 17 17 17 17 17 15 16 16 16 16 16 17 17 17 17 17 17 18 18 19 19 20 20 20 19 19 19 19 19 19 19 19 19 19
17 17 18 18 17 17 17 17 17 16 16 16 16 16 17 16 16 17 16 16 17 17 18 17 18 19 19 19 19 19 19 19 19 19 19 19 19 19
17 17 18 18 18 17 16 16 17 17 16 15 16 16 16 16 16 16 17 16 16 17 17 18 18 18 18 19 19 19 19 19 19 18 18 18 18 18
17 17 18 18 18 16 16 16 16 16 15 16 16 16 17 17 17 18 17 17 16 16 17 17 18 18 18 18 18 18 18 18 18 18 18 18 18 18
17 17 17 17 17 16 16 16 15 15 15 15 15 16 17 18 19 19 18 17 17 17 18 17 17 17 17 18 18 18 18 18 18 18 18 18 18 18
18 18 17 17 16 16 16 16 16 15 15 15 15 16 17 18 18 18 17 17 17 18 17 17 16 17 16 16 17 18 18 17 17 18 18 18 18 18
18 18 17 17 17 17 16 17 16 16 16 15 16 16 17 17 17 18 17 17 17 18 17 17 17 17 16 16 16 16 17 17 18 18 18 18 18 17
18 18 17 17 16 17 17 17 17 17 17 16 17 17 16 17 17 17 17 18 17 18 17 17 17 16 16 16 15 15 16 16 17 17 18 18 18 17
17 17 17 16 17 17 17 17 16 16 17 17 17 17 17 17 17 17 17 16 16 17 18 17 17 16 15 16 16 16 16 16 17 17 17 17 17 17
16 16 16 16 16 16 15 15 16 16 16 16 16 16 17 17 17 17 16 16 16 16 16 17 16 15 14 15 16 17 16 16 16 16 16 16 17 18
15 15 15 15 15 14 14 14 14 16 16 16 17 17 17 16 15 16 16 16 16 16 17 16 16 14 10 11 18 17 17 17 17 16 16 16 16 18
14 13 13 13 13 12 12 12 12 13 14 15 15 15 15 16 16 15 15 15 15 15 16 16 16 15 13 12 15 18 17 17 17 17 17 16 16 17
12 12 12 12 11 11 11 11 11 11 11 11 11 12 12 13 14 14 14 14 14 14 14 15 16 16 15 14 13 15 18 18 18 18 18 17 16 16
11 10 10 10 10 9 9 9 9 9 9 10 9 8 9 10 11 12 12 13 13 13 13 14 14 14 14 13 14 15 17 18 17 17 17 17 17 13
11 10 10 10 10 9 9 9 9 8 8 8 8 9 7 6 8 9 9 10 11 12 12 12 13 13 14 14 14 14 15 17 17 17 17 18 17 17

GFSNE_925_temp_285.txt.gz
Temp
19 19 20 19 19 19 19 20 22 24 25 24 24 22 22 22 22 22 23 23 23 23 23 23 23 22 22 21 21 21 21 20 20 20 20 20 20 20
19 19 19 19 19 19 19 19 20 21 24 23 23 22 21 22 22 23 23 24 23 23 23 23 23 23 22 22 22 22 22 21 21 21 21 21 21 21
18 18 18 18 19 19 19 19 20 20 22 23 21 21 20 21 21 21 22 22 23 23 23 23 23 23 23 23 22 22 22 22 22 21 21 21 21 21
19 18 18 18 18 18 19 18 19 18 19 20 20 21 20 20 20 20 21 22 22 22 23 23 23 23 23 23 23 22 22 22 22 21 21 21 21 21
18 18 18 18 18 18 18 18 18 18 18 18 19 20 20 19 20 20 20 20 21 21 22 22 23 24 23 23 22 21 22 21 21 22 21 20 20 20
18 18 18 17 17 17 17 17 17 17 18 18 19 19 19 19 19 20 21 20 21 21 21 21 22 23 22 22 21 21 22 22 22 21 21 20 20 20
18 17 17 17 18 17 17 17 16 17 18 19 19 19 20 20 20 19 19 20 20 19 20 21 21 20 21 21 22 21 21 21 21 21 21 20 20 20
18 17 17 18 17 17 17 16 16 16 16 18 19 19 18 18 19 18 19 20 22 18 19 21 20 21 20 19 21 21 21 21 20 21 20 19 19 19
17 17 17 18 17 17 17 16 16 17 16 15 17 17 17 17 17 18 18 18 19 19 18 21 20 21 19 19 20 20 20 20 19 19 19 19 19 19
17 17 17 17 17 16 17 17 16 16 16 16 16 16 15 16 16 16 16 16 18 19 17 20 20 21 19 19 19 19 19 19 19 19 19 19 19 19
16 16 16 16 16 17 16 17 16 16 16 16 16 15 15 15 16 16 18 19 20 20 18 19 20 20 20 19 18 18 18 18 18 18 18 19 19 19
16 16 17 17 17 17 16 16 16 17 15 15 15 15 15 15 16 16 17 18 20 20 18 19 20 18 21 18 17 17 17 18 18 18 18 18 18 18
18 18 17 17 17 17 16 15 16 15 15 15 16 16 16 16 17 16 16 17 18 19 18 18 19 19 19 19 18 18 18 17 17 17 17 17 17 18
18 18 18 18 17 17 16 16 16 15 15 16 16 17 17 18 17 16 15 15 16 17 16 17 18 18 19 19 20 19 18 16 17 18 17 16 17 17
17 17 18 17 17 17 17 16 16 15 16 16 17 17 17 17 16 16 15 15 15 15 15 16 16 17 17 18 19 19 18 19 17 17 17 17 17 17
16 16 16 17 16 16 16 16 15 15 15 16 17 17 16 16 17 17 17 18 18 18 17 15 15 15 17 17 17 18 18 18 18 17 17 17 17 17
16 15 14 15 16 16 15 15 15 15 15 15 15 16 16 16 17 17 17 17 17 19 19 18 15 15 15 16 17 17 18 18 17 17 15 17 17 17
15 15 16 15 15 15 15 15 15 14 14 14 15 15 16 17 17 17 17 17 18 19 19 18 18 16 16 16 16 17 18 18 18 16 16 17 18 18
14 13 13 13 13 12 12 12 12 12 11 13 14 14 15 15 15 16 17 18 18 18 18 18 17 17 19 20 19 17 18 18 18 17 17 17 18 18
12 12 12 11 12 11 11 11 10 10 10 10 10 10 10 10 12 14 15 17 18 18 19 18 17 17 18 19 19 19 16 17 18 18 18 18 18 17
12 11 11 11 11 10 10 10 10 9 9 9 9 8 8 8 9 8 8 9 11 13 15 17 17 15 15 15 16 17 17 17 17 17 18 18 18 18
12 12 12 11 12 11 11 11 11 11 11 11 10 9 9 8 8 7 7 7 7 7 8 9 11 12 12 12 14 15 17 18 17 16 16 16 18 19
12 12 11 11 11 11 11 11 11 11 11 11 11 10 10 10 9 8 7 8 6 6 6 6 7 9 10 10 10 11 12 12 15 16 17 17 17 17

GFSNE_925_temp_291.txt.gz
Temp
25 24 24 26 26 26 26 26 27 28 30 27 28 26 26 25 24 24 23 22 23 23 23 23 22 22 22 21 21 20 20 20 20 20 20 20 20 20
25 24 23 26 25 25 25 26 26 26 27 29 28 27 24 24 24 24 25 23 24 24 24 24 23 23 23 22 22 21 21 21 20 20 20 20 20 20
23 23 23 22 24 25 25 25 25 25 26 27 27 24 23 23 24 24 24 25 25 24 23 23 23 23 23 23 22 22 22 21 21 21 20 20 20 20
23 23 23 23 22 22 24 22 23 22 23 24 24 24 24 24 23 23 24 26 24 23 23 23 23 23 23 23 22 22 22 22 22 21 21 21 20 20
23 22 23 22 22 22 21 22 24 23 23 23 23 24 25 24 24 23 23 24 24 24 24 23 23 23 23 23 23 23 23 22 22 21 21 21 20 20
23 22 22 22 22 21 21 21 21 21 23 22 24 25 25 24 23 24 25 24 25 26 23 23 24 23 24 24 24 23 22 22 22 21 21 21 21 21
22 22 21 21 20 20 20 21 20 21 22 23 24 25 25 24 23 24 24 24 24 24 24 25 23 23 23 23 23 23 21 21 21 21 21 21 21 20
22 22 21 20 19 19 19 19 18 19 19 21 22 22 22 22 23 22 23 23 24 23 23 24 24 25 25 22 22 22 22 21 21 21 21 21 21 20
22 22 22 23 20 20 19 19 18 18 18 18 19 20 20 20 20 20 21 20 22 23 22 23 24 24 25 22 22 22 21 21 20 20 21 21 20 20
22 21 21 21 21 20 21 20 20 18 19 18 19 19 19 19 18 19 19 19 20 20 22 22 23 24 25 23 23 22 21 20 19 20 20 19 19 20
21 21 21 20 20 19 19 19 20 21 20 20 19 18 18 18 18 17 19 21 23 24 22 23 23 24 24 24 22 21 20 20 19 19 19 19 19 19
21 20 20 19 19 18 18 19 20 20 20 20 19 19 19 18 18 17 18 20 22 23 22 23 23 23 23 23 21 21 20 20 19 18 18 19 19 19
18 20 20 19 19 18 17 17 19 19 19 19 19 21 21 21 20 18 18 19 20 21 20 21 22 22 23 23 23 22 21 21 20 18 18 18 19 19
16 16 16 16 17 18 17 17 17 18 18 20 21 21 21 22 22 21 20 19 19 19 19 18 19 21 21 22 22 22 23 22 20 19 19 18 18 19
15 16 16 16 16 16 17 17 17 17 18 19 20 20 21 21 20 20 19 19 19 18 19 19 18 19 20 21 21 21 21 22 22 22 21 19 19 18
15 15 15 15 14 14 16 17 17 17 18 18 18 18 19 19 20 20 20 21 21 21 20 19 18 18 18 19 20 20 21 21 21 22 21 21 20 19
14 15 15 14 14 14 15 16 17 17 17 17 17 18 18 19 19 20 20 20 20 20 21 21 19 18 18 19 19 19 20 20 21 21 21 21 20 20
15 15 15 14 15 15 14 14 15 15 15 14 15 15 15 15 16 17 18 19 20 19 19 20 19 19 18 18 18 19 19 20 20 21 21 21 20 20
14 14 14 15 15 15 15 14 14 13 13 13 13 14 14 14 14 15 16 16 16 17 17 17 16 15 14 16 19 19 19 20 21 21 21 21 20 20
14 14 14 13 13 13 12 12 12 12 13 13 14 14 14 14 14 14 14 14 14 14 15 16 15 11 11 12 12 15 15 17 18 17 18 19 20 21
18 18 17 17 17 16 16 15 15 15 15 14 15 16 16 15 15 16 16 15 13 13 13 13 13 10 10 11 12 14 15 14 12 12 13 15 17 18
17 17 16 16 16 15 15 15 15 16 16 16 16 15 15 15 15 15 15 15 15 15 14 13 12 11 10 11 12 12 13 12 12 12 11 12 12 14
16 16 15 16 16 16 15 15 15 16 16 16 16 16 15 15 15 15 15 15 15 15 15 15 15 15 12 11 10 10 10 11 11 11 11 13 13 12